CW4482 Weather Reports


Display with metric or nautical units.
time (UTC)temp
F
wind
direction
speed
MPH
gust
MPH
rain 1hr
in
rain 24hr
in
rain mn
in
humidity
%
barometer
mb
20260902073020 80 360 1.0 5.0 0.00 0.00 0.00 80 1012.6
20260902071547 80 360 1.0 5.0 0.00 0.00 0.00 80 1012.8
20260902070027 80 360 1.0 2.0 0.00 0.00 0.00 80 1012.8
20260902064515 80 360 2.0 6.0 0.00 0.00 0.00 80 1012.8
20260902063019 80 360 2.0 6.0 0.00 0.00 0.00 80 1012.8
20260902061524 80 360 2.0 5.0 0.00 0.00 0.00 81 1012.8
20260902060030 80 360 0.0 4.0 0.00 0.00 0.00 81 1012.5
20260902054514 80 360 2.0 5.0 0.00 0.00 0.00 81 1012.5
20260902053041 80 360 0.0 6.0 0.00 0.00 0.00 81 1012.4
20260902051526 80 360 2.0 9.0 0.00 0.00 0.00 82 1012.6
20260902050028 79 360 3.0 6.0 0.00 0.00 0.00 82 1012.6
20260902044511 79 360 3.0 8.0 0.00 0.00 0.00 83 1012.6
20260902043019 79 360 2.0 9.0 0.00 0.00 0.00 83 1012.8
20260902041523 79 360 3.0 8.0 0.00 0.00 0.00 84 1012.9
20260902040032 79 360 2.0 5.0 0.00 0.00 0.00 85 1012.9
20260902034515 79 360 2.0 5.0 0.00 0.00 0.00 85 1012.9
20260902033018 79 360 1.0 4.0 0.00 0.00 0.00 85 1012.9
20260902031542 79 360 2.0 5.0 0.00 0.00 0.00 86 1012.8
20260902030018 79 360 1.0 3.0 0.00 0.00 0.00 86 1012.7
20260902024526 79 360 1.0 3.0 0.00 0.00 0.00 86 1012.7
20260902023010 79 360 1.0 3.0 0.00 0.00 0.00 86 1012.2
20260902021519 79 360 1.0 3.0 0.00 0.00 0.00 86 1011.9
20260902020024 79 360 1.0 5.0 0.00 0.00 0.00 85 1011.9
20260902014512 79 360 2.0 4.0 0.00 0.00 0.00 85 1011.7
20260902013015 79 360 2.0 5.0 0.00 0.00 0.00 85 1011.6
20260902011521 79 360 1.0 3.0 0.00 0.00 0.00 85 1011.6
20260902010021 79 360 1.0 3.0 0.00 0.00 0.00 85 1011.5
20260902004529 80 360 1.0 3.0 0.00 0.00 0.00 85 1011.7
20260902003012 79 360 2.0 4.0 0.00 0.00 0.00 86 1011.9
20260902001521 80 360 0.0 2.0 0.00 0.00 0.00 88 1011.8
20260902000025 80 360 2.0 5.0 0.00 0.00 0.00 86 1011.7
20260901234515 80 360 3.0 5.0 0.00 0.00 0.00 86 1011.8
20260901233017 79 360 1.0 4.0 0.00 0.00 0.00 87 1011.9
20260901231523 79 360 2.0 3.0 0.00 0.00 0.00 88 1012.0
20260901230010 79 360 1.0 3.0 0.00 0.00 0.00 88 1012.4
20260901224514 79 360 3.0 5.0 0.00 0.00 0.00 88 1012.6
20260901223043 79 360 2.0 5.0 0.00 0.00 0.00 88 1012.7
20260901221543 79 360 0.0 3.0 0.00 0.00 0.00 89 1012.7
20260901220010 79 360 2.0 4.0 0.00 0.00 0.00 89 1012.8
20260901214514 79 355 2.0 8.0 0.00 0.00 0.00 88 1013.0
20260901213019 80 360 3.0 12.0 0.00 0.00 0.00 88 1013.3
20260901211524 81 360 0.0 0.0 0.00 0.00 0.00 90 1012.9
20260901210013 81 360 0.0 0.0 0.00 0.00 0.00 89 1012.9
20260901204517 81 360 0.0 0.0 0.00 0.00 0.00 88 1012.8
20260901203026 82 360 1.0 4.0 0.00 0.00 0.00 85 1012.8
20260901201511 83 360 0.0 4.0 0.00 0.00 0.00 81 1013.0
20260901200020 86 360 1.0 6.0 0.00 0.00 0.00 73 1013.3
20260901194523 87 360 2.0 6.0 0.00 0.00 0.00 68 1013.7
20260901193011 87 360 0.0 6.0 0.00 0.00 0.00 70 1013.7
20260901191516 86 360 2.0 4.0 0.00 0.00 0.00 72 1014.0
20260901190021 86 360 0.0 3.0 0.00 0.00 0.00 76 1013.9
20260901184522 85 360 1.0 3.0 0.00 0.00 0.00 78 1013.9
20260901183010 85 360 1.0 4.0 0.00 0.00 0.00 75 1013.8
20260901181515 85 360 4.0 6.0 0.00 0.00 0.00 70 1014.1
20260901180019 85 360 2.0 9.0 0.00 0.00 0.00 76 1014.2
20260901174525 84 360 3.0 6.0 0.00 0.00 0.00 75 1014.7
20260901173028 84 360 1.0 2.0 0.00 0.00 0.00 79 1015.1
20260901171516 84 360 0.0 0.0 0.00 0.00 0.00 80 1015.4
20260901170020 84 360 0.0 3.0 0.00 0.00 0.00 78 1015.6
20260901164527 84 355 0.0 3.0 0.00 0.00 0.00 76 1015.6
20260901163026 85 360 0.0 3.0 0.00 0.00 0.00 77 1015.5
20260901161515 85 360 1.0 5.0 0.00 0.00 0.00 76 1015.6
20260901160019 86 360 2.0 5.0 0.00 0.00 0.00 74 1015.6
20260901154526 86 360 2.0 10.0 0.00 0.00 0.00 71 1015.3
20260901153011 86 360 1.0 8.0 0.00 0.00 0.00 75 1015.2
20260901151537 85 360 2.0 6.0 0.00 0.00 0.00 76 1015.3
20260901150021 84 360 3.0 8.0 0.00 0.00 0.00 76 1015.2
20260901144550 84 360 2.0 5.0 0.00 0.00 0.00 78 1015.4
20260901143032 83 360 3.0 8.0 0.00 0.00 0.00 80 1015.5
20260901141515 82 360 2.0 6.0 0.00 0.00 0.00 81 1015.4
20260901140012 81 360 2.0 4.0 0.00 0.00 0.00 82 1015.4
20260901134515 81 360 0.0 5.0 0.00 0.00 0.00 84 1015.5
20260901133018 80 4 1.0 3.0 0.00 0.00 0.00 86 1015.6
20260901131542 79 360 0.0 4.0 0.00 0.00 0.00 86 1015.3
20260901130044 79 360 0.0 3.0 0.00 0.00 0.00 88 1015.2
20260901124511 78 360 1.0 3.0 0.00 0.00 0.00 88 1015.0
20260901123016 78 360 0.0 3.0 0.00 0.00 0.00 89 1014.8
20260901121522 78 360 1.0 4.0 0.00 0.00 0.00 88 1014.6
20260901120025 78 355 0.0 2.0 0.00 0.00 0.00 88 1014.5
20260901114512 78 360 1.0 3.0 0.00 0.00 0.00 88 1014.5
20260901113016 78 355 0.0 1.0 0.00 0.00 0.00 88 1014.4
20260901111523 78 360 0.0 2.0 0.00 0.00 0.00 88 1014.4
20260901110020 78 360 0.0 2.0 0.00 0.00 0.00 88 1014.3
20260901104528 78 360 0.0 1.0 0.00 0.00 0.00 88 1014.3
20260901103029 78 360 0.0 0.0 0.00 0.00 0.00 88 1014.2
20260901101518 78 360 0.0 0.0 0.00 0.00 0.00 88 1014.2
20260901100020 78 360 0.0 0.0 0.00 0.00 0.00 88 1014.2
20260901094526 78 360 0.0 0.0 0.00 0.00 0.00 88 1014.3
20260901093028 78 360 0.0 0.0 0.00 0.00 0.00 87 1014.4
20260901091516 79 360 0.0 0.0 0.00 0.00 0.00 88 1014.4
20260901090020 79 360 0.0 0.0 0.00 0.00 0.00 87 1014.5
20260901084528 79 360 0.0 0.0 0.00 0.00 0.00 87 1014.6
20260901083011 79 360 0.0 0.0 0.00 0.00 0.00 86 1014.5
20260901081520 79 360 0.0 0.0 0.00 0.00 0.00 86 1014.5
20260901080025 79 360 0.0 0.0 0.00 0.00 0.00 86 1014.4
20260901074513 80 360 0.0 0.0 0.00 0.00 0.00 86 1014.5